Location: Franzen
(48.6167°N, 15.3833°E)
Time: 10:07:01
(UTC+00:00)

ARIANE 5 R/B - Pass Details

Date: 01 August 2021
Orbit: 620 x 656 km, 98.1° (Epoch: 21 September)

Event Time Altitude Azimuth Distance (km) Brightness Sun altitude
Exits shadow 21:36:32 12° 230° (SW) 1,935 4.9 -20.7°
Maximum altitude 21:39:08 18° 269° (W) 1,584 4.9 -20.9°
Drops below altitude 10° 21:42:11 10° 312° (NW) 2,044 6.1 -21.1°
Sets 21:45:02 0° 332° (NNW) 2,951 7.6 -21.3°
